Zurück zum Katalog

STARLINK-30271

AktivKommunikationVLEO
NORAD 57669·PAYLOAD·🇺🇸 United States

Gestartet Aug 22, 2023 von Vandenberg Space Force Base

Loading…

Nächste Überflüge (nächste 24 Stunden)

TLE

AktuellSource: CelesTrak SupGP

Epoche: Sep 14, 2026, 14:25 UTC

1 57669C 23124G   26257.60118056 -.00061892  00000+0 -19902-2 0  2571
2 57669  53.1586  48.0479 0001152  89.2953 314.4666 15.31733818    11

Verfolge STARLINK-30271 in Echtzeit mit AllMySat

Download on the App Store